Chatham, MA

8:38 PM EDT on July 26, 2017 (GMT -0400)
Chatham Municipal

Weather History for KCQX - April, 2013

Change the Weather History Date:

Sunday, April 7, 2013

  Actual Average Record
Temperature  
Mean Temperature 38 °F -  
Max Temperature 48 °F 47 °F 59 °F (1998)
Min Temperature 28 °F 34 °F 19 °F (1982)
Degree Days  
Heating Degree Days 27    
Moisture  
Dew Point 32 °F    
Average Humidity 72    
Maximum Humidity 85    
Minimum Humidity 46    
Precipitation  
Precipitation 0.00 in - - ()
Sea Level Pressure  
Sea Level Pressure 30.26 in    
Wind  
Wind Speed 5 mph (South)    
Max Wind Speed 15 mph    
Max Gust Speed 26 mph    
Visibility 10 miles    
Events      
Averages and records for this station are not official NWS values.
T = Trace of Precipitation, MM = Missing Value Source: NWS Daily Summary

Daily Weather History Graph

Daily Weather History Graph

Search for Another Location

Airport or City:

Trip Planner

Search our weather history database for the weather conditions in past years. The results will help you decide how hot, cold, wet, or windy it might be!

Date:

Astronomy

Apr. 07, 2013 Rise Set
Actual Time 6:12 AM EDT 7:12 PM EDT
Civil Twilight 5:44 AM EDT 7:40 PM EDT
Nautical Twilight 5:10 AM EDT 8:14 PM EDT
Astronomical Twilight 4:35 AM EDT 8:49 PM EDT
Moon 4:30 AM EDT (4/7) 4:39 PM EDT (4/7)
Length of Visible Light 13h 56m
Length of Day
12h 59m
Waning Crescent, 8% of the Moon is Illuminated
Apr 7
Waning Crescent
Apr 10
New
Apr 18
First Quarter
Apr 25
Full
May 2
Last Quarter

Hourly Weather History & Observations

Time (EDT) Temp. Windchill Dew Point Humidity Pressure Visibility Wind Dir Wind Speed Gust Speed Precip Events Conditions
12:52 AM 33.1 °F - 26.1 °F 75% 30.36 in 10.0 mi Calm Calm - N/A   Clear
1:52 AM 28.9 °F - 24.1 °F 82% 30.35 in 10.0 mi Calm Calm - N/A   Clear
2:52 AM 30.0 °F 26.5 °F 25.0 °F 82% 30.33 in 10.0 mi ESE 3.5 mph - N/A   Clear
3:52 AM 28.9 °F - 25.0 °F 85% 30.32 in 10.0 mi Calm Calm - N/A   Clear
4:52 AM 30.0 °F - 26.1 °F 85% 30.32 in - Calm Calm - N/A   Clear
5:52 AM 33.1 °F - 28.0 °F 82% 30.33 in 10.0 mi Calm Calm - N/A   Clear
6:52 AM 35.1 °F 31.0 °F 30.9 °F 85% 30.35 in 10.0 mi South 4.6 mph - N/A   Clear
7:52 AM 41.0 °F 37.1 °F 33.1 °F 73% 30.37 in 10.0 mi Variable 5.8 mph - N/A   Clear
8:52 AM 44.1 °F 39.5 °F 33.1 °F 65% 30.36 in 10.0 mi SSW 8.1 mph - N/A   Clear
9:52 AM 45.0 °F 40.6 °F 30.0 °F 56% 30.36 in 10.0 mi SSW 8.1 mph - N/A   Clear
10:52 AM 46.9 °F - 28.0 °F 48% 30.35 in 10.0 mi SSW 10.4 mph 17.3 mph N/A   Clear
12:52 PM 46.9 °F - 32.0 °F 56% 30.29 in - SSW 13.8 mph 23.0 mph N/A   Clear
1:52 PM 48.0 °F - 28.0 °F 46% 30.27 in 10.0 mi SSW 11.5 mph 21.9 mph N/A   Clear
2:52 PM 46.0 °F 39.6 °F 32.0 °F 58% 30.24 in 10.0 mi South 15.0 mph 25.3 mph N/A   Clear
3:52 PM 46.0 °F 41.4 °F 33.1 °F 61% 30.21 in 10.0 mi South 9.2 mph 24.2 mph N/A   Clear
4:52 PM 45.0 °F 38.5 °F 35.1 °F 68% 30.20 in 10.0 mi South 13.8 mph 24.2 mph N/A   Clear
5:52 PM 44.1 °F 38.1 °F 36.0 °F 73% 30.18 in 10.0 mi South 11.5 mph 19.6 mph N/A   Clear
6:52 PM 44.1 °F 37.7 °F 37.0 °F 76% 30.14 in 10.0 mi South 12.7 mph 20.7 mph N/A   Clear
7:52 PM 44.1 °F 38.6 °F 39.0 °F 82% 30.13 in 10.0 mi South 10.4 mph 17.3 mph N/A   Clear
8:52 PM 45.0 °F 39.7 °F 39.9 °F 82% 30.14 in 10.0 mi SSW 10.4 mph 19.6 mph N/A   Clear
9:52 PM 46.0 °F 40.6 °F 39.9 °F 79% 30.12 in 10.0 mi SSW 11.5 mph 26.5 mph N/A   Mostly Cloudy
10:52 PM 46.9 °F - 41.0 °F 80% 30.10 in 10.0 mi SSW 11.5 mph 25.3 mph N/A   Overcast
11:52 PM 48.0 °F - 42.1 °F 80% 30.09 in 10.0 mi SSW 13.8 mph 26.5 mph N/A   Clear